Location: Misciano
(43.5000°N, 11.9500°E)
Time: 07:23:51
(UTC+00:00)

Cosmos 2173 Rocket - Pass Details

Date: 13 August 2020
Orbit: 945 x 1000 km, 83.0° (Epoch: 26 September)

Event Time Altitude Azimuth Distance (km) Brightness Sun altitude
Exits shadow 20:52:55 49° 159° (SSE) 1,221 4.1 -23.5°
Maximum altitude 20:54:34 70° 94° (E) 1,015 3.9 -23.7°
Drops below altitude 10° 21:00:39 10° 12° (NNE) 2,684 6.8 -24.3°
Sets 21:03:09 0° 11° (N) 3,629 7.6 -24.6°
